Weather History for Richmond Hanover County, VA

Change the Weather History Date:

Wednesday, September 11, 2013

  Actual Average Record
Temperature  
Mean Temperature 80 °F -  
Max Temperature 91 °F 83 °F 102 °F (1983)
Min Temperature 70 °F 57 °F 43 °F (1949)
Cooling Degree Days 15    
Growing Degree Days 30 (Base 50)    
Moisture  
Dew Point 68 °F    
Average Humidity 69    
Maximum Humidity 93    
Minimum Humidity 45    
Precipitation  
Precipitation 0.00 in - - ()
Sea Level Pressure  
Sea Level Pressure 30.13 in    
Wind  
Wind Speed 4 mph (South)    
Max Wind Speed 12 mph    
Max Gust Speed 16 mph    
Visibility 9 miles    
Events      
Averages and records for this station are not official NWS values.
T = Trace of Precipitation, MM = Missing Value Source: NWS Daily Summary

Daily Weather History Graph

Daily Weather History Graph

Search for Another Location

Airport:

Trip Planner

Search our weather history database for the weather conditions in past years. The results will help you decide how hot, cold, wet, or windy it might be!

Date:

Astronomy

Sep. 11, 2013 Rise Set
Actual Time 6:48 AM EDT 7:23 PM EDT
Civil Twilight 6:22 AM EDT 7:49 PM EDT
Nautical Twilight 5:50 AM EDT 8:20 PM EDT
Astronomical Twilight 5:18 AM EDT 8:52 PM EDT
Moon 1:07 PM EDT (9/11) 11:24 PM EDT (9/11)
Length of Visible Light 13h 27m
Length of Day
12h 34m
Waxing Crescent, 38% of the Moon is Illuminated
Sep 11
Waxing Crescent
Sep 12
First Quarter
Sep 19
Full
Sep 26
Last Quarter
Oct 4
New

Hourly Weather History & Observations

Time (EDT) Temp. Heat Index Dew Point Humidity Pressure Visibility Wind Dir Wind Speed Gust Speed Precip Events Conditions
12:54 AM 75.9 °F - 69.1 °F 79% 30.18 in 9.0 mi South 3.5 mph - N/A   Clear
1:54 AM 75.9 °F - 68.0 °F 76% 30.17 in 10.0 mi South 3.5 mph - N/A   Clear
2:54 AM 73.0 °F - 68.0 °F 84% 30.17 in 8.0 mi South 3.5 mph - N/A   Clear
3:54 AM 71.1 °F - 69.1 °F 93% 30.15 in 7.0 mi Calm Calm - N/A   Clear
4:54 AM 70.0 °F - 68.0 °F 93% 30.15 in 5.0 mi Calm Calm - N/A   Clear
5:54 AM 71.1 °F - 68.0 °F 90% 30.15 in 7.0 mi Calm Calm - N/A   Clear
6:54 AM 71.1 °F - 68.0 °F 90% 30.17 in 5.0 mi Calm Calm - N/A   Clear
7:54 AM 73.0 °F - 69.1 °F 87% 30.18 in 6.0 mi South 4.6 mph - N/A   Clear
8:54 AM 77.0 °F - 69.1 °F 76% 30.18 in 6.0 mi SSW 6.9 mph - N/A   Haze
9:54 AM 81.0 °F 84.4 °F 70.0 °F 69% 30.18 in 8.0 mi SSW 4.6 mph - N/A   Clear
10:54 AM 84.0 °F 87.8 °F 69.1 °F 61% 30.17 in 9.0 mi South 4.6 mph - N/A   Clear
11:54 AM 87.1 °F 92.0 °F 70.0 °F 57% 30.16 in 9.0 mi Calm Calm - N/A   Clear
12:54 PM 89.1 °F 94.1 °F 70.0 °F 53% 30.14 in 9.0 mi Variable 4.6 mph - N/A   Clear
1:54 PM 90.0 °F 94.5 °F 69.1 °F 50% 30.13 in 10.0 mi SSW 10.4 mph - N/A   Clear
2:54 PM 90.0 °F 94.5 °F 69.1 °F 50% 30.11 in 9.0 mi SSW 9.2 mph 16.1 mph N/A   Clear
3:54 PM 90.0 °F 94.5 °F 69.1 °F 50% 30.09 in 10.0 mi South 8.1 mph - N/A   Clear
4:54 PM 90.0 °F 93.6 °F 68.0 °F 48% 30.07 in 10.0 mi SSW 11.5 mph - N/A   Partly Cloudy
5:54 PM 89.1 °F 91.0 °F 64.9 °F 45% 30.06 in 10.0 mi SSW 6.9 mph - N/A   Clear
6:54 PM 84.9 °F 87.6 °F 66.9 °F 55% 30.06 in 10.0 mi South 8.1 mph - N/A   Clear
7:54 PM 79.0 °F - 68.0 °F 69% 30.07 in 10.0 mi Calm Calm - N/A   Clear
8:54 PM 77.0 °F - 68.0 °F 74% 30.08 in 10.0 mi Variable 3.5 mph - N/A   Clear
9:54 PM 79.0 °F - 66.0 °F 64% 30.08 in 10.0 mi South 5.8 mph - N/A   Clear
10:54 PM 78.1 °F - 66.0 °F 66% 30.07 in 10.0 mi South 5.8 mph - N/A   Clear
11:54 PM 75.0 °F - 66.0 °F 73% 30.06 in 10.0 mi South 4.6 mph - N/A   Clear